{"data":{"norad_id":59719,"epoch":"2026-09-21T21:29:14.454816Z","epoch_age_seconds":50798,"freshness":"FRESH","line1":"1 59719U 24088M   26264.89530619  .00000491  00000+0  89101-5 0  9991","line2":"2 59719  53.1598  79.4035 0001115  96.5823 263.5322 15.69709432137081","mean_motion":15.69709432,"eccentricity":0.0001115,"inclination_deg":53.1598,"raan_deg":79.4035,"arg_perigee_deg":96.5823,"mean_anomaly_deg":263.5322,"bstar":8.9101e-6,"rev_number":13708,"period_min":91.736723411623,"perigee_km":358.97710382945,"apogee_km":360.47964780826,"semimajor_km":6737.8653758189,"source":"CELESTRAK","updated_at":"2026-09-22T09:00:49.059515Z"}}